Volver al catálogo

CZ-3B DEB

ActivoGTO
NORAD 40184·DEBRIS·🇨🇳 China

Lanzado Dec 19, 2011 desde Xichang Satellite Launch Center

Loading…

TLE

ObsoletoSource: Space-Track

Época: Sep 13, 2026, 21:40 UTC

1 40184U 11077H   26256.90336687  .00000777  00000-0  20225-2 0  9990
2 40184  21.3524 167.4624 7514208 135.8599 317.0950  1.93677846 81705

Sigue CZ-3B DEB en tiempo real con AllMySat

Download on the App Store